weather.gov     
National Weather Service

Regional Weather Roundup
NWS Homepage
This page is being discontinued on March 12, 2014.
The same data is available at this site. Please update your bookmarks.
Thank you, and we apologize for the inconvenience.
Please send an email to SR-SRH.Webmaster@noaa.gov with any concerns.


Current Version
Previous Version:    01  02  03  04  05  06  07  08  09  10  11  12  13  14  15  16  17  18  19  20  21  22  23  24  25  26  27  
[Printable]
800
ASUS41 KAKQ 231210
RWRAKQ

REGIONAL WEATHER ROUNDUP
NATIONAL WEATHER SERVICE WAKEFIELD VA
800 AM EDT WED JUL 23 2014

Note: "fair" indicates few or no clouds below 12,000 feet with no
significant weather and/or obstructions to visibility. * = Denotes
station may not report precipitation (e.g., rain,snow,etc.),
thunder or fog.

VAZ042-051-052>054-056-231300-
NORTHERN VIRGINIA

CITY           SKY/WX    TMP DP  RH WIND       PRES   REMARKS
WASH NATIONAL  MOSUNNY   78  70  76 S6        30.02R
DULLES         MOSUNNY   74  70  87 SW3       30.02R
FORT BELVOIR   SUNNY     76  71  82 VRB1      30.02R
QUANTICO       MOSUNNY   76  70  82 SW6       30.02R
FREDERICKSBRG* SUNNY     75  73  93 SW5       30.01S
STAFFORD*      MOSUNNY   74  74 100 CALM      30.06R
WARRENTON      PTSUNNY   77  75  95 SW5       30.02S
CULPEPER*      MOSUNNY  N/A N/A N/A CALM      30.03S
MANASSAS*      MOSUNNY   73  73 100 CALM      30.02R
LEESBURG*      MOSUNNY   73  73 100 CALM      30.03S
WINCHESTER     MOSUNNY   77  70  78 SW6       30.03S
$$

VAZ048-049-060>072-079>083-231300-
CENTRAL AND SOUTH CENTRAL VIRGINIA...AND NORTH CENTRAL NORTH CAROLINA

CITY           SKY/WX    TMP DP  RH WIND       PRES   REMARKS
RICHMOND       FOG       72  71  97 SW6       30.05R VSB 1
CHESTERFIELD*  CLOUDY   N/A N/A N/A W3        30.06R
HANOVER        SUNNY     76  71  85 S6        30.05R
TAPPAHANNOCK*  MOSUNNY   73  70  89 S3        30.04S
CHARLOTTSVILLE MOSUNNY   74  71  91 S6        30.04R
ORANGE*        SUNNY     73  70  88 S5        30.04S
LOUISA*        MOSUNNY   73  70  88 W3        30.03S
FARMVILLE*     MOSUNNY   72  72 100 CALM      30.03S
SOUTH HILL*    FOG       73  73 100 CALM      30.12R VSB<1/4
ROANOKE RAPIDS FOG       64  64 100 CALM      30.06S VSB 1/2
RALEIGH        FOG       74  72  93 SW3       30.08R VSB 1
$$

VAZ088>098-231300-
SOUTHEAST VIRGINIA

CITY           SKY/WX    TMP DP  RH WIND       PRES   REMARKS
NORFOLK        CLOUDY    76  72  87 CALM      30.04R
VIRGINIA BEACH PTSUNNY   75  73  93 SW6       30.04R FOG
NORFOLK NAVAL  CLOUDY    76  72  87 SW5       30.06R
WEST POINT*    CLOUDY    76  73  90 SW6       30.06R
NEWPORT NEWS   CLOUDY    79  73  82 W5        30.04R
LANGLEY AFB    PTSUNNY   76  76  99 W3        30.04R
FORT EUSTIS    CLOUDY    73 N/A N/A W3        30.03R
WILLIAMSBURG*  CLOUDY    75  73  94 W5        30.06R
FRANKLIN*      CLOUDY    73 N/A N/A CALM      30.05S
WAKEFIELD      CLOUDY    74  72  93 CALM      30.05R
$$

VAZ020-022-025-037-045-231300-
WESTERN AND SOUTHWEST VIRGINIA

CITY           SKY/WX    TMP DP  RH WIND       PRES   REMARKS
STAUNTON*      PTSUNNY   73  68  85 CALM      30.10R
HOT SPRINGS VA CLOUDY    64  62  94 W9        30.23R FOG
LYNCHBURG      SUNNY     70  69  97 SW5       30.09R
DANVILLE       SUNNY     72  70  93 SW5       30.08R
MARTINSVILLE   MOSUNNY   69  68  96 CALM      30.13R
ROANOKE        MOSUNNY   71  67  87 CALM      30.11S
BLACKSBURG     FOG       66  66 100 CALM      30.18S VSB 1
DUBLIN*        SUNNY     68  68 100 S5        30.17S
MARION*        MOSUNNY   67  67 100 W6        30.22R
HILLSVILLE*    FOG       63  63 100 SW3       30.19R VSB 1/2
RICHLANDS*     MOSUNNY   71  67  86 SW3       30.20R
WISE*          MOSUNNY   70  68  94 CALM      30.21R
ABINGDON*      PTSUNNY   69  67  95 CALM      30.18R
$$

MDZ021>025-VAZ099-100-231300-
SOUTHERN MARYLAND AND THE DELMARVA PENINSULA

CITY           SKY/WX    TMP DP  RH WIND       PRES   REMARKS
PATUXENT RIVER MOSUNNY   75  72  90 SW7       30.02R
BAY BRIDGE APT   N/A     77  72  83 SW6       30.01S
LEONARDTOWN    MOSUNNY   73  70  88 S6        30.04
DOVER          CLOUDY    73  73 100 SW9       30.01R
GEORGETOWN     MOSUNNY   73  71  93 S12       30.03S
EASTON         NOT AVBL
CAMBRIDGE      SUNNY     79  73  83 S3        30.02S
SALISBURY      NOT AVBL
OCEAN CITY     MOSUNNY   76  73  91 W3        30.03R
WALLOPS ISLAND MOSUNNY   76  74  93 SW6       30.04R
ACCOMACK*        N/A     73  72  94 CALM      30.04R
$$

NCZ012>017-030>032-231300-
EASTERN NORTH CAROLINA

CITY           SKY/WX    TMP DP  RH WIND       PRES   REMARKS
ELIZABETH CITY CLOUDY    76  74  93 W6        30.05R
AHOSKIE*       CLOUDY    73  72  96 CALM      30.06S
EDENTON*       CLOUDY    77  75  93 W5        30.06R
CURRITUCK*     CLOUDY    75  73  92 W5        30.06R FOG
KILL DEVIL HLS PTSUNNY   76  75  95 W3        30.04S
MANTEO         NOT AVBL
CAPE HATTERAS  MOSUNNY   80  76  87 W9        30.05F
GOLDSBORO      CLOUDY    77  77  99 SW7       30.06R
WASHINGTON     CLOUDY    75  73  94 W3        30.06S
GREENVILLE     CLOUDY    75  75 100 CALM      30.08S FOG
NEW BERN       PTSUNNY   78  74  87 W3        30.08R
WILMINGTON     SUNNY     78  74  87 W6        30.06S
$$

VAZ048-231300-
ELSEWHERE

CITY           SKY/WX    TMP DP  RH WIND       PRES   REMARKS
HARRISBURG PA  MOSUNNY   77  69  76 CALM      29.99S
BALTIMORE      MOSUNNY   76  70  82 SW3       30.00S
ANNAPOLIS      MOSUNNY   77  70  79 VRB7      30.00S
ANDREWS AFB    MOSUNNY   76  71  84 SW8       30.02R
WILMINGTON DE  SUNNY     75  71  87 SW8       30.02R
PHILADELPHIA   MOSUNNY   75  67  76 SW8       30.01R
WILDWOOD NJ*   SUNNY     75  70  83 SW6       30.04R
ATLANTIC CITY  CLOUDY    73  70  90 SW7       30.02R
HENDERSON NC   CLOUDY    73  71  95 SW5       30.08R FOG
GREENSBORO     MOSUNNY   74  70  87 SW3       30.10R
ROCKY MOUNT    CLOUDY    75  73  93 SW6       30.07R
FAYETTEVILLE   CLOUDY    77  75  93 W8        30.07R FOG
CHARLOTTE      MOSUNNY   74  71  91 CALM      30.11R
$$

VAZ100-231300-
MARINE

STATION/POSITION TIME  TEMP    WIND        PRES    WAVE   SWELL
                       AIR SEA DIR/SP/G            HT/PER HT/PER
                 (UTC) (F)     (DEG/KT/KT) (MB)    (FT/S) (FT/S)
44066 TX TWR #4  1200   73 73  220/  8/  8 1016.7R   2/ 9   2/ 9
CAPE MAY NJ      1200   73 76  220/  6/  8 1016.5S
LEWES DE         1200   74 71  210/  4/  8 1016.4S
15NM E FENWICK I 1200   75 75              1017.0R   2/ 8
OCEAN-CITY-INLET 1200   73 71  200/  2/  3 1016.4R
WACHAPREAGUE VA  1200   78 80  240/  4/  5 1016.9R
THOMAS POINT MD  1200   76 79  200/  7/  7 1016.7R
GOOSES REEF MD   1200   76     230/  8/ 10 1017.0R
COVE POINT MD    1200   75     210/  5/  7 1016.5R
SOLOMONS ISLAND  1200      81                N/A
BISHOPS HEAD MD  1200   77 79  230/  7/ 10 1016.5R
PINEY POINT MD   1200          220/  5/  6   N/A
POTOMAC MD       1200   75     240/  6/  8 1016.2R
CAMBRIDGE MD     1200   76 80  200/  5/  8 1016.3R
LEWISETTA VA     1200   75 81  250/  5/  6 1016.7S
RAPPAHANNOCK LGT 1200          250/  6/  7 1017.6R
STINGRAY PT      1200   76     250/  6/ 10 1017.7R
YORK RVR RNG VA  1200   76     280/  4/  6 1016.6R
YORKTOWN VA      1200   75 80  250/  4/  5 1016.9S
JAMESTOWN VA     1200   72     260/  6/  8   N/A
DOMINION TERM VA 1200   73     240/  5/  5 1017.4R
KIPTOPEKE VA     1200      80  260/  6/  7   N/A
CHES BAY BRIDGE  1200   75 78  240/  7/  8 1016.8R
CAPE HENRY VA    1200   75     240/  5/  7 1016.2R
WILLOUBY STN VA  1200          230/  7/  8 1016.5F
S CRANEY ISL VA  1200          250/  2/  4 1017.4R
CAPE HENRY BUOY  1200      76                N/A     2/ 8
1ST LANDING BUOY 1200   76     270/ 10/ 12 1016.9R
CAPE CHARLES BUO 1200      75                N/A     2/11
OFFSHORE WE BUOY 1200      77                N/A     3/ 7
64NM E OF VA BCH 1200   77 78  260/  4/  6 1016.7R   3/ 5   2/ 5
DUCK PIER NC     1200   76 73  280/  8/ 10 1016.9R
44056 DUCK FRF   1200                        N/A     2/ 6
OREGON INLET NC  1200   76 79  250/  8/ 12 1017.5F
HATTERAS NC      1200   79 82  270/  9/ 11 1018.1S
DIAMOND SHLS NC  1200          VRB 10/ 12  1017.8S   3/10   2/10
CAPE LOOKOUT NC  1100   79     260/  6/  8 1017.6F
$$




U.S. Dept. of Commerce
NOAA National Weather Service
1325 East West Highway
Silver Spring, MD 20910
E-mail: w-nws.webmaster@noaa.gov
Page last modified: May 16, 2007
NATIONAL WEATHER SERVICE: for Safety, for Work, for Fun - FOR LIFE